Santa Ynez, CA

11:35 PM PDT on April 29, 2017 (GMT -0700)
Santa Ynez

Weather History for KIZA - October, 2012

Change the Weather History Date:

Friday, October 26, 2012

  Actual Average (KSBA) Record (KSBA)
Temperature  
Mean Temperature 62 °F -  
Max Temperature 82 °F 71 °F 90 °F (1993)
Min Temperature 42 °F 49 °F 38 °F (1954)
Degree Days  
Heating Degree Days 3    
Growing Degree Days 12 (Base 50)    
Moisture  
Dew Point 37 °F    
Average Humidity 46    
Maximum Humidity 81    
Minimum Humidity 14    
Precipitation  
Precipitation 0.00 in - - ()
Sea Level Pressure  
Sea Level Pressure 30.02 in    
Wind  
Wind Speed 5 mph (WNW)    
Max Wind Speed 16 mph    
Max Gust Speed 20 mph    
Visibility 10 miles    
Events      
Averages and records for this station are not official NWS values.
T = Trace of Precipitation, MM = Missing Value Source: NWS Daily Summary

Daily Weather History Graph

Daily Weather History Graph

Search for Another Location

Airport or City:

Trip Planner

Search our weather history database for the weather conditions in past years. The results will help you decide how hot, cold, wet, or windy it might be!

Date:

Astronomy

Oct. 26, 2012 Rise Set
Actual Time 7:15 AM PDT 6:12 PM PDT
Civil Twilight 6:50 AM PDT 6:37 PM PDT
Nautical Twilight 6:20 AM PDT 7:07 PM PDT
Astronomical Twilight 5:51 AM PDT 7:36 PM PDT
Moon 4:25 PM PDT (10/26) 4:23 AM PDT (10/26)
Length of Visible Light 11h 47m
Length of Day
10h 56m
Waxing Gibbous, 91% of the Moon is Illuminated
Oct 26
Waxing Gibbous
Oct 29
Full
Nov 6
Last Quarter
Nov 13
New
Nov 20
First Quarter

Hourly Weather History & Observations

Time (PDT) Temp. Windchill Dew Point Humidity Pressure Visibility Wind Dir Wind Speed Gust Speed Precip Events Conditions
12:15 AM 64.4 °F - 39.2 °F 40% 30.06 in 10.0 mi East 6.9 mph - N/A   Clear
12:35 AM 59.0 °F - 39.2 °F 48% 30.05 in 10.0 mi SE 4.6 mph - N/A   Clear
12:55 AM 55.4 °F - 41.0 °F 58% 30.05 in 10.0 mi East 4.6 mph - N/A   Clear
1:15 AM 53.6 °F - 41.0 °F 62% 30.05 in 10.0 mi ESE 9.2 mph - N/A   Clear
1:35 AM 53.6 °F - 41.0 °F 62% 30.05 in 10.0 mi Calm Calm - N/A   Clear
1:55 AM 53.6 °F - 41.0 °F 62% 30.05 in 10.0 mi Calm Calm - N/A   Clear
2:15 AM 53.6 °F - 41.0 °F 62% 30.05 in 10.0 mi East 5.8 mph - N/A   Clear
2:35 AM 51.8 °F - 39.2 °F 62% 30.05 in 10.0 mi SSE 3.5 mph - N/A   Clear
2:55 AM 50.0 °F - 41.0 °F 71% 30.05 in 10.0 mi North 3.5 mph - N/A   Clear
3:15 AM 51.8 °F - 39.2 °F 62% 30.05 in 10.0 mi NE 3.5 mph - N/A   Clear
3:35 AM 50.0 °F - 39.2 °F 66% 30.03 in 10.0 mi ESE 4.6 mph - N/A   Clear
3:55 AM 50.0 °F - 39.2 °F 66% 30.03 in 10.0 mi ESE 6.9 mph - N/A   Clear
4:15 AM 50.0 °F - 39.2 °F 66% 30.03 in 10.0 mi East 4.6 mph - N/A   Clear
4:35 AM 48.2 °F - 37.4 °F 66% 30.03 in 10.0 mi ENE 3.5 mph - N/A   Clear
4:55 AM 46.4 °F - 37.4 °F 71% 30.03 in 10.0 mi Calm Calm - N/A   Clear
5:15 AM 46.4 °F 45.2 °F 37.4 °F 71% 30.03 in 10.0 mi North 3.5 mph - N/A   Clear
5:35 AM 48.2 °F - 37.4 °F 66% 30.05 in 10.0 mi Calm Calm - N/A   Clear
5:55 AM 46.4 °F - 37.4 °F 71% 30.04 in 10.0 mi Calm Calm - N/A   Clear
6:35 AM 42.8 °F 40.1 °F 37.4 °F 81% 30.04 in 10.0 mi NE 4.6 mph - N/A   Clear
6:55 AM 44.6 °F 43.1 °F 37.4 °F 76% 30.05 in 10.0 mi NE 3.5 mph - N/A   Clear
7:15 AM 42.8 °F - 35.6 °F 76% 30.05 in 10.0 mi Calm Calm - N/A   Clear
7:35 AM 42.8 °F 41.1 °F 35.6 °F 76% 30.06 in 10.0 mi NNE 3.5 mph - N/A   Clear
7:55 AM 44.6 °F - 37.4 °F 76% 30.07 in 10.0 mi Calm Calm - N/A   Clear
8:15 AM 48.2 °F - 37.4 °F 66% 30.08 in 10.0 mi Calm Calm - N/A   Clear
8:35 AM 50.0 °F - 37.4 °F 62% 30.09 in 10.0 mi Calm Calm - N/A   Clear
8:55 AM 53.6 °F - 39.2 °F 58% 30.09 in 10.0 mi Calm Calm - N/A   Clear
9:15 AM 57.2 °F - 41.0 °F 55% 30.09 in 10.0 mi Calm Calm - N/A   Clear
9:35 AM 59.0 °F - 39.2 °F 48% 30.09 in 10.0 mi Calm Calm - N/A   Clear
9:55 AM 60.8 °F - 41.0 °F 48% 30.09 in 10.0 mi SW 3.5 mph - N/A   Clear
10:15 AM 62.6 °F - 39.2 °F 42% 30.08 in 10.0 mi Calm Calm - N/A   Clear
10:35 AM 68.0 °F - 37.4 °F 33% 30.08 in 10.0 mi Calm Calm - N/A   Clear
10:55 AM 69.8 °F - 37.4 °F 31% 30.07 in 10.0 mi Calm Calm - N/A   Clear
11:15 AM 71.6 °F - 37.4 °F 29% 30.07 in 10.0 mi West 3.5 mph - N/A   Clear
11:35 AM 73.4 °F - 37.4 °F 27% 30.07 in 10.0 mi West 3.5 mph - N/A   Clear
11:55 AM 77.0 °F - 35.6 °F 22% 30.06 in 10.0 mi WSW 3.5 mph - N/A   Clear
12:15 PM 78.8 °F - 32.0 °F 18% 30.05 in 10.0 mi West 3.5 mph - N/A   Clear
12:35 PM 78.8 °F - 32.0 °F 18% 30.04 in 10.0 mi WSW 4.6 mph - N/A   Clear
12:55 PM 80.6 °F - 30.2 °F 16% 30.03 in 10.0 mi WNW 9.2 mph - N/A   Clear
1:15 PM 82.4 °F - 28.4 °F 14% 30.02 in 10.0 mi WNW 6.9 mph - N/A   Clear
1:35 PM 82.4 °F - 30.2 °F 15% 30.01 in 10.0 mi West 8.1 mph - N/A   Clear
1:55 PM 82.4 °F - 30.2 °F 15% 30.00 in 10.0 mi West 11.5 mph - N/A   Clear
2:15 PM 82.4 °F - 32.0 °F 16% 29.98 in 10.0 mi West 15.0 mph - N/A   Clear
2:35 PM 82.4 °F - 32.0 °F 16% 29.98 in 10.0 mi West 12.7 mph 17.3 mph N/A   Clear
2:55 PM 82.4 °F - 32.0 °F 16% 29.97 in 10.0 mi West 16.1 mph - N/A   Clear
3:15 PM 82.4 °F - 32.0 °F 16% 29.97 in 10.0 mi West 13.8 mph 19.6 mph N/A   Clear
3:35 PM 82.4 °F - 32.0 °F 16% 29.96 in 10.0 mi West 15.0 mph 18.4 mph N/A   Clear
3:55 PM 80.6 °F - 33.8 °F 18% 29.96 in 10.0 mi West 16.1 mph - N/A   Clear
4:15 PM 80.6 °F - 32.0 °F 17% 29.96 in 10.0 mi West 15.0 mph - N/A   Clear
4:35 PM 80.6 °F - 33.8 °F 18% 29.96 in 10.0 mi West 13.8 mph - N/A   Clear
4:55 PM 78.8 °F - 35.6 °F 21% 29.95 in 10.0 mi West 12.7 mph - N/A   Clear
5:15 PM 78.8 °F - 35.6 °F 21% 29.95 in 10.0 mi West 12.7 mph - N/A   Clear
5:35 PM 77.0 °F - 35.6 °F 22% 29.95 in 10.0 mi West 10.4 mph - N/A   Clear
5:55 PM 73.4 °F - 37.4 °F 27% 29.96 in 10.0 mi West 10.4 mph - N/A   Clear
6:15 PM 71.6 °F - 39.2 °F 31% 29.96 in 10.0 mi WNW 9.2 mph - N/A   Clear
6:35 PM 68.0 °F - 39.2 °F 35% 29.96 in 10.0 mi West 5.8 mph - N/A   Clear
6:55 PM 66.2 °F - 41.0 °F 40% 29.98 in 10.0 mi WNW 5.8 mph - N/A   Clear
7:15 PM 66.2 °F - 41.0 °F 40% 29.98 in 10.0 mi Calm Calm - N/A   Clear
7:35 PM 64.4 °F - 39.2 °F 40% 29.99 in 10.0 mi Calm Calm - N/A   Clear
7:55 PM 64.4 °F - 41.0 °F 42% 29.99 in 10.0 mi SSW 3.5 mph - N/A   Clear
8:15 PM 62.6 °F - 39.2 °F 42% 29.99 in 10.0 mi Calm Calm - N/A   Clear
8:35 PM 62.6 °F - 41.0 °F 45% 29.99 in 10.0 mi Calm Calm - N/A   Clear
8:55 PM 62.6 °F - 41.0 °F 45% 29.99 in 10.0 mi NW 5.8 mph - N/A   Clear
9:15 PM 55.4 °F - 41.0 °F 58% 30.00 in 10.0 mi Calm Calm - N/A   Clear
9:35 PM 60.8 °F - 39.2 °F 45% 30.00 in 10.0 mi Calm Calm - N/A   Clear
9:55 PM 55.4 °F - 39.2 °F 54% 30.00 in 10.0 mi Calm Calm - N/A   Clear
10:15 PM 53.6 °F - 39.2 °F 58% 30.00 in 10.0 mi Calm Calm - N/A   Clear
10:35 PM 53.6 °F - 41.0 °F 62% 30.00 in 10.0 mi Calm Calm - N/A   Clear
10:55 PM 51.8 °F - 39.2 °F 62% 30.00 in 10.0 mi Calm Calm - N/A   Clear
11:15 PM 51.8 °F - 37.4 °F 58% 30.00 in 10.0 mi Calm Calm - N/A   Clear
11:35 PM 50.0 °F - 37.4 °F 62% 29.99 in 10.0 mi NE 5.8 mph - N/A   Clear
11:55 PM 51.8 °F - 35.6 °F 54% 29.99 in 10.0 mi ENE 3.5 mph - N/A   Clear